"Pseudo-MPEC" for P10IjS1

Created 2018 Jul 12 16:18:18 UT using Find_Orb

Click here for an explanation of pseudo-MPECs

 
 Astrometry: 
     P10IjS1  C2018 07 10l$Astrometry$P#9H;q5:bS5S!a`([s#88LNe;ujsKG2Nc)TRxp-F51
     P10IjS1  C2018 07 10++I^a1DilqF_/r3Ohbsa4@tb]Wp6UfC`LFD3WB$:Hc#uPR=9K$'FF51
     P10IjS1  C2018 07 10Ri)0_se%pLQ=JdNG@R;CoK[mP9tvl=ZV-g[Xm3urQ#?rVZ;%R3%WF51
     P10IjS1 |C2018 07 11Hr.aF^Scr/?QU^Dh3redacted;?j5ko`s_YA2A]X6BR;XQppO8]F807
     P10IjS1 |C2018 07 112N[#N+d.-7n@3bp^B`Zt`P-7FWA_;gKCHNKSlZ:^(5q.wgFsM[m4807
     P10IjS1 |C2018 07 111%12FJMguJ6$uCJ/8.7M%y$lwt[jbFEAWWB\^/WbE57C`G[n8.Nl807
     P10IjS1 KC2018 07 12ftlcnM-0M,R*=t@U)x=)gUMVavHIJ:5xsee,RG3_W`lcE/]eeA=\474
     P10IjS1 KC2018 07 12$+k^2!EbJHfd7eKi28Niyt-x^D=#e5_Ct+',,IV(5u?.287Vkeci474
     P10IjS1 KC2018 07 12I-aMv@JJK,0WfYhoo=ho=Q\UB8G-Uj1+7C[Wn+(T:@u(ijEX:/vq474
     P10IjS1 KC2018 07 12+hr8C=I9H;]^r+iU_+oY[QIKP[elD;=O)6A-E@/`Wm2]g!BNEOCP474

Station data:
(474) Mount John Observatory, Lake Tekapo  (S43.987388 E170.464960)  New
   Zealand.  Observers A. C. Gilmore, P. M. Kilmartin. Measurer P. M.
   Kilmartin. 1.0-m f/7.7 reflector + CCD.
(807) Cerro Tololo Observatory, La Serena  (S30.169136 W70.805900)  Chile.
   1.5-m Ritchey-Chrétien.
(F51) Pan-STARRS 1, Haleakala  (N20.707235 W156.255910)  US/Hawaii.
   Observers N. Primak, A. Schultz, S. Watters, J. Thiel, T. Goggia. Measurer
   PS1 Science Consortium. 1.8-m Ritchey-Chrétien + CCD.

Orbital elements:  P10IjS1
   Perihelion 2018 Jul 21.335762 +/- 0.792 TT =  8:03:29 (JD 2458320.835762)
Epoch 2018 Jul 12.0 TT = JDT 2458311.5   Earth MOID: 0.1749   AutoNEOCP
M 355.26209 +/- 0.43                (J2000 ecliptic)
n   0.50750072 +/- 0.00614          Peri.  346.81541 +/- 0.7
a   1.55660446 +/- 0.0125           Node   312.18109 +/- 0.09
e   0.2357113 +/- 0.0044            Incl.    4.81265 +/- 0.06
P   1.94/709.35d           H 24.5   G  0.15   U  9.3  
q 1.18969517 +/- 0.00277    Q 1.92351375 +/- 0.0226
From 10 observations 2018 July 10-12; mean residual 0".21
Residuals in arcseconds: 
180710 F51  .01+  .16+    180711 807  .06+  .00     180712 474  .62-  .26-    
180710 F51  .02+  .25-    180711 807  .06-  .08-    180712 474  .51+  .00     
180710 F51  .04-  .09+    180712 474  .19+  .09+    
180711 807  .01+  .08+    180712 474  .09-  .18+    

Ephemerides (geocentric):
Date (UTC) HH   RA              Dec         delta   r     elong  mag " sig PA
---- -- -- --  -------------   -----------  ------ ------ -----  --- ---- ---
2018 07 12 16  20 27 33.964   -30 37 20.83  .18103 1.1915 163.8 22.0  .24 141
2018 07 12 17  20 27 35.273   -30 36 17.05  .18099 1.1915 163.9 22.0  .24 141
2018 07 12 18  20 27 36.578   -30 35 13.21  .18095 1.1915 163.9 22.0  .23 140
2018 07 12 19  20 27 37.879   -30 34 09.31  .18091 1.1915 163.9 22.0  .23 139
2018 07 12 20  20 27 39.176   -30 33 05.35  .18087 1.1915 164.0 22.0  .22 138
2018 07 12 21  20 27 40.469   -30 32 01.33  .18083 1.1915 164.0 22.0  .22 137
2018 07 12 22  20 27 41.758   -30 30 57.25  .18078 1.1914 164.0 22.0  .21 136
2018 07 12 23  20 27 43.043   -30 29 53.12  .18074 1.1914 164.1 22.0  .21 134
2018 07 13 00  20 27 44.325   -30 28 48.92  .18070 1.1914 164.1 22.0  .20 133
2018 07 13 01  20 27 45.602   -30 27 44.67  .18066 1.1914 164.1 22.0  .19 131
2018 07 13 02  20 27 46.875   -30 26 40.35  .18062 1.1914 164.2 21.9  .19 128
2018 07 13 03  20 27 48.144   -30 25 35.98  .18058 1.1914 164.2 21.9  .18 126
2018 07 13 04  20 27 49.410   -30 24 31.54  .18054 1.1913 164.2 21.9  .17 123
2018 07 13 05  20 27 50.671   -30 23 27.05  .18050 1.1913 164.3 21.9  .16 119
2018 07 13 06  20 27 51.929   -30 22 22.50  .18046 1.1913 164.3 21.9  .16 115
2018 07 13 07  20 27 53.183   -30 21 17.89  .18042 1.1913 164.3 21.9  .15 111
2018 07 13 08  20 27 54.432   -30 20 13.23  .18038 1.1913 164.4 21.9  .14 105
2018 07 13 09  20 27 55.678   -30 19 08.50  .18034 1.1913 164.4 21.9  .14  99
2018 07 13 10  20 27 56.920   -30 18 03.72  .18030 1.1912 164.4 21.9  .13  93
2018 07 13 11  20 27 58.159   -30 16 58.87  .18026 1.1912 164.5 21.9  .13  85
2018 07 13 12  20 27 59.393   -30 15 53.97  .18022 1.1912 164.5 21.9  .13  78
2018 07 13 13  20 28 00.624   -30 14 49.01  .18018 1.1912 164.5 21.9  .14  70
2018 07 13 14  20 28 01.851   -30 13 44.00  .18014 1.1912 164.6 21.9  .14  63
2018 07 13 15  20 28 03.074   -30 12 38.92  .18010 1.1912 164.6 21.9  .15  56
2018 07 13 16  20 28 04.293   -30 11 33.79  .18006 1.1911 164.6 21.9  .16  50
2018 07 13 17  20 28 05.508   -30 10 28.60  .18002 1.1911 164.7 21.9  .17  44
2018 07 13 18  20 28 06.720   -30 09 23.35  .17999 1.1911 164.7 21.9  .19  39
2018 07 13 19  20 28 07.928   -30 08 18.05  .17995 1.1911 164.7 21.9  .20  34
2018 07 13 20  20 28 09.132   -30 07 12.68  .17991 1.1911 164.8 21.9  .22  30
2018 07 13 21  20 28 10.332   -30 06 07.26  .17987 1.1911 164.8 21.9  .24  27
2018 07 13 22  20 28 11.529   -30 05 01.79  .17983 1.1910 164.8 21.9  .26  24
2018 07 13 23  20 28 12.722   -30 03 56.25  .17980 1.1910 164.9 21.9  .28  22
2018 07 14 00  20 28 13.911   -30 02 50.66  .17976 1.1910 164.9 21.9  .31  19
2018 07 14 01  20 28 15.097   -30 01 45.01  .17972 1.1910 164.9 21.9  .33  17
2018 07 14 02  20 28 16.279   -30 00 39.31  .17968 1.1910 165.0 21.9  .36  16
2018 07 14 03  20 28 17.457   -29 59 33.55  .17965 1.1910 165.0 21.9  .38  14
2018 07 14 04  20 28 18.631   -29 58 27.73  .17961 1.1910 165.0 21.9  .41  13
2018 07 14 05  20 28 19.802   -29 57 21.85  .17957 1.1909 165.1 21.9  .44  11
2018 07 14 06  20 28 20.969   -29 56 15.92  .17954 1.1909 165.1 21.9  .47  10
2018 07 14 07  20 28 22.133   -29 55 09.93  .17950 1.1909 165.1 21.9  .50   9
2018 07 14 08  20 28 23.293   -29 54 03.89  .17946 1.1909 165.2 21.9  .53   8
2018 07 14 09  20 28 24.449   -29 52 57.79  .17943 1.1909 165.2 21.9  .56   8
2018 07 14 10  20 28 25.602   -29 51 51.63  .17939 1.1909 165.2 21.9  .59   7
2018 07 14 11  20 28 26.751   -29 50 45.42  .17935 1.1909 165.3 21.9  .62   6
2018 07 14 12  20 28 27.897   -29 49 39.16  .17932 1.1908 165.3 21.9  .66   6
2018 07 14 13  20 28 29.039   -29 48 32.83  .17928 1.1908 165.3 21.9  .69   5
2018 07 14 14  20 28 30.178   -29 47 26.45  .17925 1.1908 165.4 21.9  .73   4
2018 07 14 15  20 28 31.313   -29 46 20.02  .17921 1.1908 165.4 21.9  .76   4